Regional Weather Roundup
Issued by NWS

Home | Current Version | Previous Version | Text Only | Print | Product List | Glossary On
Versions: 1 2 3 4 5 6 7 8 9 10 11 12 13 14 15 16 17 18 19 20 21 22 23 24 25 26 27 28 29 30 31 32 33 34 35 36 37 38 39 40 41 42 43 44 45 46 47 48 49 50
000
ASUS43 KMPX 261801
RWRMN
WEATHER ROUNDUP FOR MINNESOTA
NATIONAL WEATHER SERVICE TWIN CITIES/CHANHASSEN MN
100 PM CDT THU MAR 26 2015


NOTE: "FAIR" INDICATES FEW OR NO CLOUDS BELOW 12,000 FEET WITH NO
SIGNIFICANT WEATHER AND/OR OBSTRUCTIONS TO VISIBILITY. N/A MEANS
CURRENT SKY AND/OR WEATHER CONDITIONS ARE NOT AVAILABLE.

MNZ060>063-068>070-261900-
   Twin Cities Metro

CITY           SKY/WX    TMP DP  RH WIND       PRES   REMARKS
TWIN CITIES    CLOUDY    34  18  52 NW14      30.11F WCI  25
6HR MIN TEMP:  27; 6HR MAX TEMP:  36;

ST PAUL        CLOUDY    35  16  45 N9        30.12F WCI  28
CRYSTAL        CLOUDY    35  17  47 NW14      30.11S WCI  26
BLAINE         CLOUDY    36  19  51 N12G21    30.11S
LAKEVILLE      CLOUDY    32  19  59 NW15      30.11S WCI  22
EDEN PRAIRIE   CLOUDY    33  18  53 NW13      30.11F WCI  24
6HR MIN TEMP:  26; 6HR MAX TEMP:  33;

SOUTH ST PAUL  CLOUDY    35  16  46 NW10G20   30.11F WCI  27
LAKE ELMO      CLOUDY    34  19  55 N14G23    30.11S WCI  24
$$
MNZ001>005-007-008-013>017-022>024-027-028-261900-
   Northwest Minnesota

CITY           SKY/WX    TMP DP  RH WIND       PRES   REMARKS
BEMIDJI        SUNNY     26   7  44 N15G21    30.18R WCI  14
HALLOCK        CLOUDY    28  18  64 N17       30.30S WCI  16
ROSEAU         SUNNY     25   9  50 N14       30.25S WCI  13
WARROAD        SUNNY     25   7  46 NE10G20   30.25S WCI  15
THIEF RVR FALL CLOUDY    27  16  63 N17       30.25F WCI  14
CROOKSTON      CLOUDY    27  16  63 N14G21    30.28S WCI  15
FOSSTON        PTSUNNY   28  18  64 N21       30.22S WCI  15
DETROIT LAKES  MOSUNNY   28  18  64 N9        30.20S WCI  20
MOORHEAD       MOSUNNY   34   9  35 N17G24    30.24S WCI  23
PARK RAPIDS    MOSUNNY   29   9  43 N8G17     30.15F WCI  21
MAHNOMEN       MOCLDY    26  12  53 N20       30.21S WCI  13
$$
MNZ006-009>011-018-025>026-261900-
   North Central Minnesota

CITY           SKY/WX    TMP DP  RH WIND       PRES   REMARKS
BAUDETTE       SUNNY     22   8  55 NW18      30.22S WCI   7
FLAG ISLAND    SUNNY     19   0  42 N13       30.25F WCI   7
INTL FALLS     MOSUNNY   22   7  52 NE9G17    30.18S WCI  12
6HR MIN TEMP:  14; 6HR MAX TEMP:  23;

WASKISH        MOSUNNY   27  12  54 N10G18    30.20R WCI  17
BIG FORK       MOSUNNY   25   9  50 N10       30.16S WCI  15
LONGVILLE      PTSUNNY   27  10  50 NW6       30.16S WCI  20
GRAND RAPIDS   PTSUNNY   25   7  46 N14G20    30.14S WCI  13
CRANE LAKE     SUNNY     19   3  49 N7G17     30.18S WCI  10
ORR            SUNNY     23   5  46 NW9       30.13R WCI  13
COOK           SUNNY     21   7  53 NW8G18    30.14S WCI  12
WALKER         MOCLDY    26   8  45 N8        30.15F WCI  17
$$
MNZ012-019>021-037-261900-
   Northeast Minnesota

CITY           SKY/WX    TMP DP  RH WIND       PRES   REMARKS
DULUTH         MOSUNNY   27   7  42 N15G22    30.08S WCI  15
6HR MIN TEMP:  21; 6HR MAX TEMP:  27; 6HR PCP: TRACE;

ELY            SUNNY     21   1  42 N8G20     30.11S WCI  12
HIBBING        SUNNY     25   5  42 N14G22    30.13S WCI  13
EVELETH        SUNNY     23   5  46 NW14G20   30.13S WCI  11
DULUTH HARBOR  PTSUNNY   28  12  50 NW5       30.14S WCI  23
TWO HARBORS    SUNNY     30   9  40 N8G21     30.08S WCI  23
SILVER BAY     MOSUNNY   28   9  43 N7        30.08S WCI  21
GRAND MARAIS     N/A     27   5  39 VRB6G17   30.11S WCI  20
G MARAIS ARPRT SUNNY     19   1  45 NW9G22    30.02S WCI   9
$$
MNZ029>031-032-039>041-046>048-054>057-064-261900-
   West Central Minnesota

CITY           SKY/WX    TMP DP  RH WIND       PRES   REMARKS
FERGUS FALLS   CLOUDY    27  14  59 N14G20    30.23S WCI  15
WHEATON        MOSUNNY   30  16  55 N17G23    30.23F WCI  18
MORRIS         PTSUNNY   30  19  64 NW17      30.18S WCI  18
ALEXANDRIA     CLOUDY    28  17  63 N16       30.16S WCI  16
ELBOW LAKE     CLOUDY    27  17  66 N14G21    30.19S WCI  16
WADENA         FLURRIES  25  16  68 N12       30.16S WCI  14
GLENWOOD       CLOUDY    28  19  69 NW14      30.16S WCI  17
APPLETON       MOSUNNY   34  19  55 N16G24    30.20S WCI  23
BENSON         PTSUNNY   32  19  59 N12G17    30.19S WCI  23
ORTONVILLE     PTSUNNY   32  19  59 N15G22    30.20F WCI  22
MADISON        PTSUNNY   34  19  55 NW15G22   30.20S WCI  24
WILLMAR        FAIR      30  19  64 NW14G20   30.18S WCI  20
$$
MNZ033>034-036-042>043-049>051-058-059-261900-
   Central Minnesota

CITY           SKY/WX    TMP DP  RH WIND       PRES   REMARKS
ST CLOUD       CLOUDY    31  17  56 N10       30.13S WCI  22
6HR MIN TEMP:  25; 6HR MAX TEMP:  31;

SAUK CENTRE    CLOUDY    28  17  64 N12G17    30.16S WCI  18
PAYNESVILLE    CLOUDY    28  19  69 W13       30.16S WCI  17
AITKIN         CLOUDY    30  10  43 NW12      30.12F WCI  21
PINE RIVER     PTSUNNY   27  12  54 N15       30.18F WCI  15
BRAINERD       SUNNY     28  10  46 N13       30.15F WCI  17
STAPLES        CLOUDY    27  12  54 NW13G20   30.15F WCI  16
LONG PRAIRIE   CLOUDY    28  18  64 NW10      30.15S WCI  19
LITTLE FALLS   CLOUDY    30  14  51 N8        30.14S WCI  23
LITCHFIELD     CLOUDY    30  21  69 N9G18     30.15S WCI  22
MAPLE LAKE     CLOUDY    33  21  60 NW8       30.14F WCI  27
$$
MNZ037-044-045-052-053-261900-
   East Central Minnesota

CITY           SKY/WX    TMP DP  RH WIND       PRES   REMARKS
PRINCETON      CLOUDY    34  16  47 NW14      30.13S WCI  24
MORA           CLOUDY    32  14  47 N12G20    30.14S WCI  23
CAMBRIDGE      CLOUDY    34  18  51 NW12      30.11S WCI  25
RUSH CITY      CLOUDY    31  15  51 NW10G16   30.12S WCI  23
MOOSE LAKE     SUNNY     32   9  37 N9G18     30.09S WCI  24
HINCKLEY       MOCLDY    32  16  51 NW15G21   30.11F WCI  22
CLOQUET        SUNNY     27   9  46 NW14G23   30.10S WCI  15
MCGREGOR       SUNNY     28  10  47 NW14      30.14S WCI  17
$$
MNZ071>073-080-081-089-090-097-098-261900-
   Southwest Minnesota

CITY           SKY/WX    TMP DP  RH WIND       PRES   REMARKS
MONTEVIDEO     PTSUNNY   34  23  64 N18G24    30.20S WCI  23
GRANITE FALLS  CLOUDY    33  22  63 NW15      30.20S WCI  23
CANBY          CLOUDY    34  21  60 N17G23    30.20F WCI  23
MARSHALL       CLOUDY    34  19  55 N16       30.19S WCI  23
REDWOOD FALLS  MOSUNNY   34  22  61 N12G21    30.17S WCI  25
OLIVIA         MOSUNNY   32  25  74 NW15G21   30.16S WCI  22
PIPESTONE      CLOUDY    34  21  60 N12       30.15F WCI  25
WINDOM         PTSUNNY   36  19  51 NW18      30.15F
WORTHINGTON    CLOUDY    34  19  55 NW15      30.17S WCI  24
JACKSON        CLOUDY    34  23  64 N14G24    30.15S WCI  24
TRACY          PTSUNNY   33  23  66 N12       30.17F WCI  25
SLAYTON        CLOUDY    32  20  61 N13       30.16F WCI  22
$$
MNZ065>067-074>077-082>085-091>093-261900-
   South Central Minnesota

CITY           SKY/WX    TMP DP  RH WIND       PRES   REMARKS
MANKATO        PTSUNNY   30  19  64 NW13      30.15S WCI  20
NEW ULM        PTSUNNY   32  19  59 N14       30.15F WCI  22
ST JAMES       MOSUNNY   36  23  60 N16       30.17S
FAIRMONT       FAIR      36  19  51 NW16G22   30.14S
GLENCOE        CLOUDY    33  23  67 NW9       30.13F WCI  25
FARIBAULT      CLOUDY    34  19  55 NW13      30.12S WCI  25
OWATONNA       CLOUDY    30  19  64 NW12      30.12S WCI  21
WASECA         PTSUNNY   32  23  69 N14       30.14S WCI  22
ALBERT LEA     PTSUNNY   32  21  64 NW10      30.12R WCI  24
$$
MNZ078>079-086>088-094>096-261900-
   Southeast Minnesota

CITY           SKY/WX    TMP DP  RH WIND       PRES   REMARKS
ROCHESTER      CLOUDY    29  21  72 NW16      30.08S WCI  17
6HR MIN TEMP:  23; 6HR MAX TEMP:  29;

RED WING       CLOUDY    36  16  44 NW8       30.10R
STANTON        CLOUDY    34  21  60 NW10      30.10S WCI  26
DODGE CENTER   CLOUDY    30  21  69 NW16G23   30.09F WCI  19
WINONA         CLOUDY    34  21  60 NW10      30.08S WCI  26
AUSTIN         CLOUDY    30  19  64 NW16      30.10S WCI  19
PRESTON        CLOUDY    29  20  69 NW12      30.08S WCI  19
$$
ABBREVIATIONS USED IN REMARKS
   TC - TEMPERATURES IN CELSIUS
  WCI - WIND CHILL INDEX
   HX - HEAT INDEX
  VSB - VISIBILITY
$$


USA.gov is the U.S. government's official web portal to all federal, state and local government web resources and services.